Location: Noordwijk
(52.2400°N, 4.4500°E)
Time: 20:12:57
(UTC+00:00)

FO-29 - Pass Details

Date: 09 December 2022
Orbit: 799 x 1322 km, 98.5° (Epoch: 31 January)

Event Time Altitude Azimuth Distance (km) Brightness Sun altitude
Rises 18:08:02 0° 205° (SSW) 4,304 13.3 -22.9°
Reaches altitude 10° 18:11:23 10° 218° (SW) 3,311 12.8 -23.4°
Maximum altitude 18:17:35 26° 272° (W) 2,247 12.1 -24.3°
Drops below altitude 10° 18:23:28 10° 326° (NW) 3,112 12.4 -25.2°
Sets 18:26:32 0° 339° (NNW) 3,998 12.9 -25.7°
